Weather History for KFDR - November, 2013

Change the Weather History Date:

Monday, November 18, 2013

  Actual Average (KLTS) Record (KLTS)
Temperature  
Mean Temperature 58 °F -  
Max Temperature 68 °F 59 °F 82 °F (1999)
Min Temperature 48 °F 36 °F 21 °F (2005)
Degree Days  
Heating Degree Days 7    
Growing Degree Days 8 (Base 50)    
Moisture  
Dew Point 24 °F    
Average Humidity 30    
Maximum Humidity 47    
Minimum Humidity 16    
Precipitation  
Precipitation 0.00 in - - ()
Sea Level Pressure  
Sea Level Pressure 30.13 in    
Wind  
Wind Speed 10 mph (ENE)    
Max Wind Speed 15 mph    
Max Gust Speed -    
Visibility 10 miles    
Events      
Averages and records for this station are not official NWS values.
T = Trace of Precipitation, MM = Missing Value Source: NWS Daily Summary

Daily Weather History Graph

Daily Weather History Graph

Search for Another Location

Airport or City:

Trip Planner

Search our weather history database for the weather conditions in past years. The results will help you decide how hot, cold, wet, or windy it might be!

Date:

Astronomy

Nov. 18, 2013 Rise Set
Actual Time 7:12 AM CST 5:29 PM CST
Civil Twilight 6:45 AM CST 5:56 PM CST
Nautical Twilight 6:14 AM CST 6:27 PM CST
Astronomical Twilight 5:44 AM CST 6:57 PM CST
Moon 6:34 PM CST (11/18) 8:01 AM CST (11/18)
Length of Visible Light 11h 11m
Length of Day
10h 17m
Full, 99% of the Moon is Illuminated
Nov 18
Full
Nov 25
Last Quarter
Dec 2
New
Dec 9
First Quarter
Dec 17
Full

Hourly Weather History & Observations

Time (CST) Temp. Dew Point Humidity Pressure Visibility Wind Dir Wind Speed Gust Speed Precip Events Conditions
12:53 AM 53.1 °F 21.0 °F 29% 30.04 in 10.0 mi NE 15.0 mph - N/A   Clear
1:53 AM 52.0 °F 18.0 °F 26% 30.06 in 10.0 mi ENE 13.8 mph - N/A   Clear
2:53 AM 52.0 °F 18.0 °F 26% 30.07 in 10.0 mi NE 12.7 mph - N/A   Clear
3:53 AM 51.1 °F 19.0 °F 28% 30.08 in 10.0 mi ENE 12.7 mph - N/A   Clear
4:53 AM 51.1 °F 19.9 °F 29% 30.09 in 10.0 mi ENE 12.7 mph - N/A   Clear
5:53 AM 48.0 °F 21.0 °F 34% 30.12 in 10.0 mi NE 10.4 mph - N/A   Clear
6:53 AM 48.0 °F 21.0 °F 34% 30.15 in 10.0 mi NE 9.2 mph - N/A   Clear
7:53 AM 48.0 °F 24.1 °F 39% 30.19 in 10.0 mi NE 5.8 mph - N/A   Clear
8:53 AM 54.0 °F 23.0 °F 30% 30.21 in 10.0 mi ENE 8.1 mph - N/A   Clear
9:53 AM 57.9 °F 23.0 °F 26% 30.21 in 10.0 mi ENE 12.7 mph - N/A   Clear
10:53 AM 61.0 °F 19.9 °F 21% 30.22 in 10.0 mi ENE 9.2 mph - N/A   Clear
11:53 AM 61.0 °F 21.0 °F 21% 30.20 in 10.0 mi ENE 5.8 mph - N/A   Clear
12:53 PM 64.9 °F 19.0 °F 17% 30.16 in 10.0 mi East 6.9 mph - N/A   Clear
1:53 PM 68.0 °F 19.9 °F 16% 30.14 in 10.0 mi NE 9.2 mph - N/A   Clear
2:53 PM 66.9 °F 19.0 °F 16% 30.12 in 10.0 mi ENE 8.1 mph - N/A   Clear
3:53 PM 66.0 °F 24.1 °F 20% 30.13 in 10.0 mi NE 6.9 mph - N/A   Clear
4:53 PM 64.0 °F 25.0 °F 23% 30.12 in 10.0 mi East 5.8 mph - N/A   Clear
5:53 PM 59.0 °F 28.0 °F 31% 30.12 in 10.0 mi East 6.9 mph - N/A   Clear
6:53 PM 57.0 °F 30.0 °F 36% 30.13 in 10.0 mi ENE 8.1 mph - N/A   Clear
7:53 PM 55.9 °F 28.9 °F 36% 30.13 in 10.0 mi East 8.1 mph - N/A   Clear
8:53 PM 54.0 °F 30.9 °F 41% 30.14 in 10.0 mi East 5.8 mph - N/A   Clear
9:53 PM 55.0 °F 30.0 °F 38% 30.13 in 10.0 mi East 6.9 mph - N/A   Clear
10:53 PM 53.1 °F 33.1 °F 47% 30.14 in 10.0 mi ENE 4.6 mph - N/A   Clear
11:53 PM 53.1 °F 32.0 °F 45% 30.13 in 10.0 mi East 3.5 mph - N/A   Clear